Weather in Pirmasens

Germany     49°12′18″N   7°36′14″E
temp.,
°C
wind,
m/s
gust,
m/s
humid.,
%
clouds,
%
prec.,
mm/h
press.,
hPa
HPBL,
m
17 april, sat
sat1723:00+1ene269176 0.0 1026147
02:00+1nne229487 0.0 102529
05:00−1nne229497 0.0 102437
08:00+2nne248264 0.0 1024162
11:00+8nne46545 0.0 10231192
14:00+10nne56415 0.0 10211612
17:00+9ne4660100 0.0 10201289
20:00+6ne4680100 0.0 1021683
18 april, sun
sun1823:00+5ne3891100 0.1 1022624
02:00+3ne259489 0.1 1022137
05:00+4n1292100 0.1 1021113
08:00+5ne369054 0.2 1021440
11:00+9ne346270 0.0 10201221
14:00+10ne3461100 0.1 10201364
17:00+9ne347285 0.3 1019966
20:00+7ne2379100 0.4 1020181
19 april, mon
mon1923:00+5ne229434 0.0 102151
02:00+5n009182 0.0 102018
05:00+4ne119587 0.0 102010
08:00+5nne128785 0.0 1019127
11:00+8ne237498 0.3 1019826
14:00+11ene236271 1.1 10171266
17:00+11e235552 0.4 10161325
20:00+8e2269100 0.4 101611
20 april, tue
tue2023:00+5ene117447 0.0 101610
02:00+4nne118250 0.0 101610
05:00+6nne1278100 0.0 101533
08:00+7ene1384100 0.0 1015111
11:00+10ene2374100 0.1 1015537
14:00+13ne126064 0.8 10131324
17:00+14n124958 0.4 10121478
20:00+11ne1167100 0.6 101211
21 april, wed
wed2123:00+8ese00765 0.0 101410
02:00+6sw008310 0.0 101410
05:00+5wsw11885 0.0 101410
08:00+7w128118 0.0 101589
11:00+12nw237296 0.4 1015901
14:00+9nw3792100 2.2 1015490
17:00+11nnw676996 0.8 10151561
20:00+7n37745 0.9 1018322